Time,TemperatureF,DewpointF,PressureIn,WindDirection,WindDirectionDegrees,WindSpeedMPH,WindSpeedGustMPH,Humidity,HourlyPrecipIn,Conditions,Clouds,dailyrainin,SoftwareType,DateUTC
2013-02-12 00:03:00,39.8,33.5,30.15,West,268,0.0,0.0,78,0.00,,---,0.00,VWS V14.01,2013-02-12 08:03:00,
2013-02-12 00:08:00,39.7,33.7,30.15,West,268,0.0,0.0,79,0.00,,---,0.00,VWS V14.01,2013-02-12 08:08:00,
2013-02-12 00:13:00,39.6,33.6,30.15,West,268,0.0,0.0,79,0.00,,---,0.00,VWS V14.01,2013-02-12 08:13:00,
2013-02-12 00:18:00,39.5,33.5,30.15,West,268,1.0,0.0,79,0.00,,---,0.00,VWS V14.01,2013-02-12 08:18:00,
2013-02-12 00:23:00,39.5,33.5,30.15,West,268,0.0,0.0,79,0.00,,---,0.00,VWS V14.01,2013-02-12 08:23:00,
2013-02-12 00:28:00,39.4,33.4,30.16,West,268,0.0,0.0,79,0.00,,---,0.00,VWS V14.01,2013-02-12 08:28:00,
2013-02-12 00:33:00,39.2,33.2,30.16,West,269,0.0,0.0,79,0.00,,---,0.00,VWS V14.01,2013-02-12 08:33:00,
2013-02-12 00:38:00,39.1,33.2,30.16,West,269,0.0,0.0,79,0.00,,---,0.00,VWS V14.01,2013-02-12 08:38:00,
2013-02-12 00:43:00,39.2,33.2,30.16,West,269,0.0,0.0,79,0.00,,---,0.00,VWS V14.01,2013-02-12 08:43:00,
2013-02-12 00:48:00,39.1,33.2,30.16,West,269,0.0,0.0,79,0.00,,---,0.00,VWS V14.01,2013-02-12 08:48:00,
2013-02-12 00:53:00,39.1,33.2,30.16,West,269,0.0,0.0,79,0.00,,---,0.00,VWS V14.01,2013-02-12 08:53:00,
2013-02-12 00:58:00,39.1,33.2,30.16,West,269,0.0,0.0,79,0.00,,---,0.00,VWS V14.01,2013-02-12 08:58:00,
2013-02-12 01:03:00,39.1,33.2,30.16,NE,34,0.0,0.0,79,0.00,,---,0.00,VWS V14.01,2013-02-12 09:03:00,
2013-02-12 01:08:00,38.9,33.0,30.16,East,85,0.0,0.0,79,0.00,,---,0.00,VWS V14.01,2013-02-12 09:08:00,
2013-02-12 01:13:00,38.9,33.0,30.16,East,85,0.0,0.0,79,0.00,,---,0.00,VWS V14.01,2013-02-12 09:13:00,
2013-02-12 01:18:00,38.8,32.9,30.16,East,85,0.0,0.0,79,0.00,,---,0.00,VWS V14.01,2013-02-12 09:18:00,
2013-02-12 01:23:00,38.7,32.8,30.16,East,86,0.0,0.0,79,0.00,,---,0.00,VWS V14.01,2013-02-12 09:23:00,
2013-02-12 01:28:00,38.6,32.7,30.16,East,85,0.0,0.0,79,0.00,,---,0.00,VWS V14.01,2013-02-12 09:28:00,
2013-02-12 01:33:00,38.5,32.6,30.16,East,85,0.0,0.0,79,0.00,,---,0.00,VWS V14.01,2013-02-12 09:33:00,
2013-02-12 01:38:00,38.4,32.8,30.17,East,85,0.0,0.0,80,0.00,,---,0.00,VWS V14.01,2013-02-12 09:38:00,
2013-02-12 01:43:00,38.4,32.8,30.17,East,85,0.0,0.0,80,0.00,,---,0.00,VWS V14.01,2013-02-12 09:43:00,
2013-02-12 01:49:00,38.4,32.5,30.17,East,85,1.0,0.0,79,0.00,,---,0.00,VWS V14.01,2013-02-12 09:49:00,
2013-02-12 01:54:00,38.5,32.6,30.17,East,85,0.0,0.0,79,0.00,,---,0.00,VWS V14.01,2013-02-12 09:54:00,
2013-02-12 01:59:00,38.6,32.7,30.17,East,85,0.0,0.0,79,0.00,,---,0.00,VWS V14.01,2013-02-12 09:59:00,
2013-02-12 02:04:00,38.6,32.7,30.17,East,86,0.0,0.0,79,0.00,,---,0.00,VWS V14.01,2013-02-12 10:04:00,
2013-02-12 02:09:00,38.6,32.7,30.17,East,86,0.0,0.0,79,0.00,,---,0.00,VWS V14.01,2013-02-12 10:09:00,
2013-02-12 02:14:00,38.5,32.6,30.17,East,85,0.0,0.0,79,0.00,,---,0.00,VWS V14.01,2013-02-12 10:14:00,
2013-02-12 02:19:00,38.3,32.4,30.17,East,85,0.0,0.0,79,0.00,,---,0.00,VWS V14.01,2013-02-12 10:19:00,
2013-02-12 02:24:00,38.3,32.4,30.17,WNW,294,0.0,0.0,79,0.00,,---,0.00,VWS V14.01,2013-02-12 10:24:00,
2013-02-12 02:29:00,38.2,32.3,30.17,WSW,252,0.0,0.0,79,0.00,,---,0.00,VWS V14.01,2013-02-12 10:29:00,
2013-02-12 02:34:00,38.1,32.2,30.17,WSW,252,0.0,0.0,79,0.00,,---,0.00,VWS V14.01,2013-02-12 10:34:00,
2013-02-12 02:39:00,38.0,32.1,30.17,WSW,252,0.0,0.0,79,0.00,,---,0.00,VWS V14.01,2013-02-12 10:39:00,
2013-02-12 02:45:00,37.9,32.0,30.17,WSW,252,0.0,0.0,79,0.00,,---,0.00,VWS V14.01,2013-02-12 10:45:00,
2013-02-12 02:50:00,37.8,32.2,30.17,ESE,120,0.0,0.0,80,0.00,,---,0.00,VWS V14.01,2013-02-12 10:50:00,
2013-02-12 02:55:00,37.7,32.1,30.17,ESE,111,0.0,0.0,80,0.00,,---,0.00,VWS V14.01,2013-02-12 10:55:00,
2013-02-12 03:00:00,37.6,32.0,30.17,South,191,0.0,0.0,80,0.00,,---,0.00,VWS V14.01,2013-02-12 11:00:00,
2013-02-12 03:05:00,37.5,31.9,30.18,SSW,192,0.0,0.0,80,0.00,,---,0.00,VWS V14.01,2013-02-12 11:05:00,
2013-02-12 03:10:00,37.6,32.0,30.18,SE,132,0.0,0.0,80,0.00,,---,0.00,VWS V14.01,2013-02-12 11:10:00,
2013-02-12 03:15:00,37.6,32.0,30.18,SE,133,0.0,0.0,80,0.00,,---,0.00,VWS V14.01,2013-02-12 11:15:00,
2013-02-12 03:20:00,37.5,31.9,30.18,SE,132,0.0,0.0,80,0.00,,---,0.00,VWS V14.01,2013-02-12 11:20:00,
2013-02-12 03:25:00,37.5,31.9,30.18,SSE,156,0.0,0.0,80,0.00,,---,0.00,VWS V14.01,2013-02-12 11:25:00,
2013-02-12 03:30:00,37.5,31.9,30.18,SSE,157,0.0,0.0,80,0.00,,---,0.00,VWS V14.01,2013-02-12 11:30:00,
2013-02-12 03:35:00,37.5,31.9,30.18,SSE,157,0.0,0.0,80,0.00,,---,0.00,VWS V14.01,2013-02-12 11:35:00,
2013-02-12 03:40:00,37.4,31.8,30.18,SSE,157,0.0,0.0,80,0.00,,---,0.00,VWS V14.01,2013-02-12 11:40:00,
2013-02-12 03:45:00,37.4,31.8,30.18,SSE,157,0.0,0.0,80,0.00,,---,0.00,VWS V14.01,2013-02-12 11:45:00,
2013-02-12 03:50:00,37.3,31.7,30.18,SSE,157,0.0,0.0,80,0.00,,---,0.00,VWS V14.01,2013-02-12 11:50:00,
2013-02-12 03:55:00,37.3,31.7,30.18,SSE,157,0.0,0.0,80,0.00,,---,0.00,VWS V14.01,2013-02-12 11:55:00,
2013-02-12 04:00:00,37.3,31.7,30.18,SSE,157,0.0,0.0,80,0.00,,---,0.00,VWS V14.01,2013-02-12 12:00:00,
2013-02-12 04:05:00,37.2,31.6,30.18,SSE,157,0.0,0.0,80,0.00,,---,0.00,VWS V14.01,2013-02-12 12:05:00,
2013-02-12 04:10:00,37.1,31.5,30.18,SSE,157,0.0,0.0,80,0.00,,---,0.00,VWS V14.01,2013-02-12 12:10:00,
2013-02-12 04:16:00,37.1,31.5,30.18,SSE,157,0.0,0.0,80,0.00,,---,0.00,VWS V14.01,2013-02-12 12:16:00,
2013-02-12 04:20:00,37.0,31.4,30.18,SSE,157,0.0,0.0,80,0.00,,---,0.00,VWS V14.01,2013-02-12 12:20:00,
2013-02-12 04:26:00,37.0,31.7,30.18,East,96,0.0,0.0,81,0.00,,---,0.00,VWS V14.01,2013-02-12 12:26:00,
2013-02-12 04:31:00,37.0,31.4,30.19,SE,125,0.0,0.0,80,0.00,,---,0.00,VWS V14.01,2013-02-12 12:31:00,
2013-02-12 04:36:00,37.1,31.5,30.19,East,82,0.0,0.0,80,0.00,,---,0.00,VWS V14.01,2013-02-12 12:36:00,
2013-02-12 04:41:00,37.2,31.6,30.19,SE,136,0.0,0.0,80,0.00,,---,0.00,VWS V14.01,2013-02-12 12:41:00,
2013-02-12 04:46:00,37.3,31.7,30.19,East,86,0.0,0.0,80,0.00,,---,0.00,VWS V14.01,2013-02-12 12:46:00,
2013-02-12 04:51:00,37.3,31.4,30.19,East,86,0.0,0.0,79,0.00,,---,0.00,VWS V14.01,2013-02-12 12:51:00,
2013-02-12 04:56:00,37.3,31.4,30.20,East,86,0.0,0.0,79,0.00,,---,0.00,VWS V14.01,2013-02-12 12:56:00,
2013-02-12 05:01:00,37.3,31.4,30.20,East,86,0.0,0.0,79,0.00,,---,0.00,VWS V14.01,2013-02-12 13:01:00,
2013-02-12 05:06:00,37.3,31.4,30.20,East,86,0.0,0.0,79,0.00,,---,0.00,VWS V14.01,2013-02-12 13:06:00,
2013-02-12 05:11:00,37.2,31.3,30.20,ESE,118,0.0,0.0,79,0.00,,---,0.00,VWS V14.01,2013-02-12 13:11:00,
2013-02-12 05:16:00,37.1,31.2,30.20,East,95,0.0,0.0,79,0.00,,---,0.00,VWS V14.01,2013-02-12 13:16:00,
2013-02-12 05:21:00,37.1,31.2,30.20,East,95,0.0,0.0,79,0.00,,---,0.00,VWS V14.01,2013-02-12 13:21:00,
2013-02-12 05:26:00,37.1,31.2,30.20,East,95,0.0,0.0,79,0.00,,---,0.00,VWS V14.01,2013-02-12 13:26:00,
2013-02-12 05:31:00,37.1,31.2,30.21,East,84,0.0,0.0,79,0.00,,---,0.00,VWS V14.01,2013-02-12 13:31:00,
2013-02-12 05:36:00,37.0,31.1,30.21,NNE,20,0.0,0.0,79,0.00,,---,0.00,VWS V14.01,2013-02-12 13:36:00,
2013-02-12 05:41:00,37.0,31.1,30.21,East,89,0.0,0.0,79,0.00,,---,0.00,VWS V14.01,2013-02-12 13:41:00,
2013-02-12 05:46:00,37.0,31.1,30.21,East,90,0.0,0.0,79,0.00,,---,0.00,VWS V14.01,2013-02-12 13:46:00,
2013-02-12 05:52:00,37.1,30.9,30.21,East,90,4.0,0.0,78,0.00,,---,0.00,VWS V14.01,2013-02-12 13:52:00,
2013-02-12 05:57:00,37.0,30.8,30.21,East,90,0.0,0.0,78,0.00,,---,0.00,VWS V14.01,2013-02-12 13:57:00,
2013-02-12 06:02:00,37.0,30.8,30.21,East,90,0.0,0.0,78,0.00,,---,0.00,VWS V14.01,2013-02-12 14:02:00,
2013-02-12 06:07:00,36.9,30.7,30.21,East,90,0.0,0.0,78,0.00,,---,0.00,VWS V14.01,2013-02-12 14:07:00,
2013-02-12 06:12:00,36.8,30.9,30.21,East,90,0.0,0.0,79,0.00,,---,0.00,VWS V14.01,2013-02-12 14:12:00,
2013-02-12 06:17:00,36.6,30.7,30.22,ESE,103,0.0,0.0,79,0.00,,---,0.00,VWS V14.01,2013-02-12 14:17:00,
2013-02-12 06:22:00,36.5,30.6,30.22,ESE,103,0.0,0.0,79,0.00,,---,0.00,VWS V14.01,2013-02-12 14:22:00,
2013-02-12 06:27:00,36.4,30.8,30.22,ESE,103,0.0,0.0,80,0.00,,---,0.00,VWS V14.01,2013-02-12 14:27:00,
2013-02-12 06:32:00,36.3,30.7,30.22,ESE,103,0.0,0.0,80,0.00,,---,0.00,VWS V14.01,2013-02-12 14:32:00,
2013-02-12 06:37:00,36.3,30.7,30.22,ESE,103,0.0,0.0,80,0.00,,---,0.00,VWS V14.01,2013-02-12 14:37:00,
2013-02-12 06:42:00,36.2,30.6,30.22,East,90,4.0,0.0,80,0.00,,---,0.00,VWS V14.01,2013-02-12 14:42:00,
2013-02-12 06:47:00,36.2,30.6,30.22,ESE,114,0.0,0.0,80,0.00,,---,0.00,VWS V14.01,2013-02-12 14:47:00,
2013-02-12 06:52:00,36.1,30.5,30.22,ESE,113,0.0,0.0,80,0.00,,---,0.00,VWS V14.01,2013-02-12 14:52:00,
2013-02-12 06:57:00,36.1,30.5,30.23,West,270,1.0,0.0,80,0.00,,---,0.00,VWS V14.01,2013-02-12 14:57:00,
2013-02-12 07:02:00,36.1,30.5,30.23,SW,221,0.0,0.0,80,0.00,,---,0.00,VWS V14.01,2013-02-12 15:02:00,
2013-02-12 07:07:00,36.2,30.6,30.23,SW,221,0.0,0.0,80,0.00,,---,0.00,VWS V14.01,2013-02-12 15:07:00,
2013-02-12 07:13:00,36.2,30.6,30.24,SW,221,0.0,0.0,80,0.00,,---,0.00,VWS V14.01,2013-02-12 15:13:00,
2013-02-12 07:18:00,36.2,30.6,30.24,SW,221,0.0,0.0,80,0.00,,---,0.00,VWS V14.01,2013-02-12 15:18:00,
2013-02-12 07:23:00,36.3,30.7,30.24,SE,127,0.0,0.0,80,0.00,,---,0.00,VWS V14.01,2013-02-12 15:23:00,
2013-02-12 07:28:00,36.4,30.8,30.25,SE,126,0.0,0.0,80,0.00,,---,0.00,VWS V14.01,2013-02-12 15:28:00,
2013-02-12 07:33:00,36.5,30.9,30.25,SE,126,0.0,0.0,80,0.00,,---,0.00,VWS V14.01,2013-02-12 15:33:00,
2013-02-12 07:38:00,36.6,31.0,30.25,SE,125,1.0,0.0,80,0.00,,---,0.00,VWS V14.01,2013-02-12 15:38:00,
2013-02-12 07:43:00,36.7,30.8,30.25,SE,125,0.0,0.0,79,0.00,,---,0.00,VWS V14.01,2013-02-12 15:43:00,
2013-02-12 07:48:00,36.8,30.9,30.26,East,101,0.0,0.0,79,0.00,,---,0.00,VWS V14.01,2013-02-12 15:48:00,
2013-02-12 07:53:00,37.0,31.1,30.26,East,95,0.0,0.0,79,0.00,,---,0.00,VWS V14.01,2013-02-12 15:53:00,
2013-02-12 07:58:00,37.1,31.2,30.26,East,94,0.0,0.0,79,0.00,,---,0.00,VWS V14.01,2013-02-12 15:58:00,
2013-02-12 08:03:00,37.5,31.3,30.26,East,94,0.0,0.0,78,0.00,,---,0.00,VWS V14.01,2013-02-12 16:03:00,
2013-02-12 08:08:00,37.9,31.7,30.26,East,95,0.0,0.0,78,0.00,,---,0.00,VWS V14.01,2013-02-12 16:08:00,
2013-02-12 08:13:00,38.2,32.0,30.26,East,95,0.0,0.0,78,0.00,,---,0.00,VWS V14.01,2013-02-12 16:13:00,
2013-02-12 08:19:00,38.5,31.9,30.26,East,80,0.0,0.0,77,0.00,,---,0.00,VWS V14.01,2013-02-12 16:19:00,
2013-02-12 08:24:00,38.7,32.1,30.26,East,80,0.0,0.0,77,0.00,,---,0.00,VWS V14.01,2013-02-12 16:24:00,
2013-02-12 08:29:00,39.0,32.1,30.26,East,80,0.0,0.0,76,0.00,,---,0.00,VWS V14.01,2013-02-12 16:29:00,
2013-02-12 08:34:00,39.3,32.0,30.27,East,80,0.0,0.0,75,0.00,,---,0.00,VWS V14.01,2013-02-12 16:34:00,
2013-02-12 08:39:00,39.6,32.7,30.27,East,80,0.0,0.0,76,0.00,,---,0.00,VWS V14.01,2013-02-12 16:39:00,
2013-02-12 08:44:00,40.1,32.8,30.27,East,80,0.0,0.0,75,0.00,,---,0.00,VWS V14.01,2013-02-12 16:44:00,
2013-02-12 08:49:00,40.6,32.6,30.27,East,101,2.0,0.0,73,0.00,,---,0.00,VWS V14.01,2013-02-12 16:49:00,
2013-02-12 08:54:00,41.2,32.9,30.27,ENE,63,0.0,0.0,72,0.00,,---,0.00,VWS V14.01,2013-02-12 16:54:00,
2013-02-12 08:59:00,41.9,33.2,30.27,East,90,0.0,0.0,71,0.00,,---,0.00,VWS V14.01,2013-02-12 16:59:00,
2013-02-12 09:04:00,42.6,33.5,30.27,East,87,0.0,0.0,70,0.00,,---,0.00,VWS V14.01,2013-02-12 17:04:00,
2013-02-12 09:09:00,43.4,33.9,30.28,East,86,0.0,0.0,69,0.00,,---,0.00,VWS V14.01,2013-02-12 17:09:00,
2013-02-12 09:14:00,44.1,34.2,30.28,East,96,1.0,0.0,68,0.00,,---,0.00,VWS V14.01,2013-02-12 17:14:00,
2013-02-12 09:19:00,44.9,34.6,30.28,East,93,0.0,0.0,67,0.00,,---,0.00,VWS V14.01,2013-02-12 17:19:00,
2013-02-12 09:24:00,45.6,34.9,30.28,East,92,4.0,0.0,66,0.00,,---,0.00,VWS V14.01,2013-02-12 17:24:00,
2013-02-12 09:29:00,46.3,34.4,30.28,East,96,0.0,0.0,63,0.00,,---,0.00,VWS V14.01,2013-02-12 17:29:00,
2013-02-12 09:34:00,47.0,34.7,30.28,East,80,0.0,0.0,62,0.00,,---,0.00,VWS V14.01,2013-02-12 17:34:00,
2013-02-12 09:39:00,47.4,35.0,30.28,East,100,1.0,0.0,62,0.00,,---,0.00,VWS V14.01,2013-02-12 17:39:00,
2013-02-12 09:44:00,47.9,35.1,30.28,East,94,1.0,0.0,61,0.00,,---,0.00,VWS V14.01,2013-02-12 17:44:00,
2013-02-12 09:49:00,48.5,35.7,30.28,East,98,0.0,0.0,61,0.00,,---,0.00,VWS V14.01,2013-02-12 17:49:00,
2013-02-12 09:55:00,49.2,36.3,30.28,East,98,0.0,0.0,61,0.00,,---,0.00,VWS V14.01,2013-02-12 17:55:00,
2013-02-12 10:00:00,50.0,35.8,30.28,ENE,74,0.0,0.0,58,0.00,,---,0.00,VWS V14.01,2013-02-12 18:00:00,
2013-02-12 10:05:00,50.8,36.1,30.28,ENE,78,0.0,0.0,57,0.00,,---,0.00,VWS V14.01,2013-02-12 18:05:00,
2013-02-12 10:10:00,51.7,36.5,30.27,ENE,78,0.0,0.0,56,0.00,,---,0.00,VWS V14.01,2013-02-12 18:10:00,
2013-02-12 10:15:00,52.6,36.5,30.27,ENE,78,0.0,0.0,54,0.00,,---,0.00,VWS V14.01,2013-02-12 18:15:00,
2013-02-12 10:20:00,53.1,36.0,30.28,WNW,286,1.0,0.0,52,0.00,,---,0.00,VWS V14.01,2013-02-12 18:20:00,
2013-02-12 10:25:00,53.3,36.6,30.28,WNW,288,0.0,0.0,53,0.00,,---,0.00,VWS V14.01,2013-02-12 18:25:00,
2013-02-12 10:30:00,53.6,36.9,30.28,North,355,2.0,0.0,53,0.00,,---,0.00,VWS V14.01,2013-02-12 18:30:00,
2013-02-12 10:35:00,54.0,37.3,30.27,WNW,283,0.0,0.0,53,0.00,,---,0.00,VWS V14.01,2013-02-12 18:35:00,
2013-02-12 10:40:00,54.2,37.5,30.28,NNE,28,1.0,0.0,53,0.00,,---,0.00,VWS V14.01,2013-02-12 18:40:00,
2013-02-12 10:45:00,54.7,36.9,30.28,NE,36,0.0,0.0,51,0.00,,---,0.00,VWS V14.01,2013-02-12 18:45:00,
2013-02-12 10:50:00,54.9,37.1,30.28,NE,44,0.0,0.0,51,0.00,,---,0.00,VWS V14.01,2013-02-12 18:50:00,
2013-02-12 10:55:00,55.1,37.3,30.28,North,350,1.0,0.0,51,0.00,,---,0.00,VWS V14.01,2013-02-12 18:55:00,
2013-02-12 11:00:00,55.3,37.0,30.28,NE,54,0.0,0.0,50,0.00,,---,0.00,VWS V14.01,2013-02-12 19:00:00,
2013-02-12 11:05:00,55.4,37.1,30.27,ENE,57,0.0,0.0,50,0.00,,---,0.00,VWS V14.01,2013-02-12 19:05:00,
2013-02-12 11:11:00,55.7,37.4,30.27,NNW,337,0.0,0.0,50,0.00,,---,0.00,VWS V14.01,2013-02-12 19:11:00,
2013-02-12 11:16:00,56.2,38.3,30.27,NE,38,2.0,0.0,51,0.00,,---,0.00,VWS V14.01,2013-02-12 19:16:00,
2013-02-12 11:21:00,56.6,38.2,30.27,NE,46,0.0,0.0,50,0.00,,---,0.00,VWS V14.01,2013-02-12 19:21:00,
2013-02-12 11:26:00,56.8,37.9,30.27,West,281,1.0,0.0,49,0.00,,---,0.00,VWS V14.01,2013-02-12 19:26:00,
2013-02-12 11:31:00,56.5,37.6,30.27,NW,310,1.0,0.0,49,0.00,,---,0.00,VWS V14.01,2013-02-12 19:31:00,
2013-02-12 11:36:00,56.7,38.3,30.27,NNE,19,2.0,0.0,50,0.00,,---,0.00,VWS V14.01,2013-02-12 19:36:00,
2013-02-12 11:41:00,56.8,37.9,30.27,NNW,339,2.0,0.0,49,0.00,,---,0.00,VWS V14.01,2013-02-12 19:41:00,
2013-02-12 11:46:00,56.9,38.0,30.26,NW,325,0.0,0.0,49,0.00,,---,0.00,VWS V14.01,2013-02-12 19:46:00,
2013-02-12 11:51:00,57.2,39.2,30.26,NNW,337,0.0,0.0,51,0.00,,---,0.00,VWS V14.01,2013-02-12 19:51:00,
2013-02-12 11:56:00,57.6,39.1,30.26,NNW,348,1.0,0.0,50,0.00,,---,0.00,VWS V14.01,2013-02-12 19:56:00,
2013-02-12 12:01:00,57.9,38.3,30.26,NE,48,2.0,0.0,48,0.00,,---,0.00,VWS V14.01,2013-02-12 20:01:00,
2013-02-12 12:07:00,58.1,38.5,30.26,NE,48,1.0,0.0,48,0.00,,---,0.00,VWS V14.01,2013-02-12 20:07:00,
2013-02-12 12:12:00,58.1,38.0,30.26,NNE,13,4.0,0.0,47,0.00,,---,0.00,VWS V14.01,2013-02-12 20:12:00,
2013-02-12 12:17:00,58.1,37.5,30.26,West,272,2.0,0.0,46,0.00,,---,0.00,VWS V14.01,2013-02-12 20:17:00,
2013-02-12 12:22:00,58.4,37.7,30.26,West,276,0.0,0.0,46,0.00,,---,0.00,VWS V14.01,2013-02-12 20:22:00,
2013-02-12 12:27:00,58.5,36.7,30.25,West,277,0.0,0.0,44,0.00,,---,0.00,VWS V14.01,2013-02-12 20:27:00,
2013-02-12 12:32:00,58.6,36.2,30.25,ESE,103,1.0,0.0,43,0.00,,---,0.00,VWS V14.01,2013-02-12 20:32:00,
2013-02-12 12:37:00,58.4,37.2,30.25,West,281,2.0,0.0,45,0.00,,---,0.00,VWS V14.01,2013-02-12 20:37:00,
2013-02-12 12:42:00,58.4,37.7,30.25,NE,39,1.0,0.0,46,0.00,,---,0.00,VWS V14.01,2013-02-12 20:42:00,
2013-02-12 12:47:00,58.8,37.0,30.25,ENE,76,1.0,0.0,44,0.00,,---,0.00,VWS V14.01,2013-02-12 20:47:00,
2013-02-12 12:52:00,59.3,36.8,30.25,NW,310,1.0,0.0,43,0.00,,---,0.00,VWS V14.01,2013-02-12 20:52:00,
2013-02-12 12:57:00,59.4,36.3,30.25,NNE,32,0.0,0.0,42,0.00,,---,0.00,VWS V14.01,2013-02-12 20:57:00,
2013-02-12 13:02:00,59.8,36.7,30.24,NE,43,2.0,0.0,42,0.00,,---,0.00,VWS V14.01,2013-02-12 21:02:00,
2013-02-12 13:07:00,60.1,37.5,30.24,North,360,2.0,0.0,43,0.00,,---,0.00,VWS V14.01,2013-02-12 21:07:00,
2013-02-12 13:12:00,60.4,37.2,30.24,NE,46,1.0,0.0,42,0.00,,---,0.00,VWS V14.01,2013-02-12 21:12:00,
2013-02-12 13:17:00,60.9,38.3,30.24,NE,36,1.0,0.0,43,0.00,,---,0.00,VWS V14.01,2013-02-12 21:17:00,
2013-02-12 13:22:00,61.6,37.7,30.24,NNE,24,2.0,0.0,41,0.00,,---,0.00,VWS V14.01,2013-02-12 21:22:00,
2013-02-12 13:28:00,62.3,37.7,30.24,NNE,31,0.0,0.0,40,0.00,,---,0.00,VWS V14.01,2013-02-12 21:28:00,
2013-02-12 13:33:00,62.9,36.9,30.24,North,351,0.0,0.0,38,0.00,,---,0.00,VWS V14.01,2013-02-12 21:33:00,
2013-02-12 13:38:00,63.1,37.8,30.24,North,9,6.0,0.0,39,0.00,,---,0.00,VWS V14.01,2013-02-12 21:38:00,
2013-02-12 13:43:00,63.5,38.8,30.23,North,9,1.0,0.0,40,0.00,,---,0.00,VWS V14.01,2013-02-12 21:43:00,
2013-02-12 13:48:00,63.3,38.0,30.23,NE,47,0.0,0.0,39,0.00,,---,0.00,VWS V14.01,2013-02-12 21:48:00,
2013-02-12 13:53:00,63.6,38.9,30.23,North,350,1.0,0.0,40,0.00,,---,0.00,VWS V14.01,2013-02-12 21:53:00,
2013-02-12 13:58:00,63.9,39.8,30.23,NNE,24,0.0,0.0,41,0.00,,---,0.00,VWS V14.01,2013-02-12 21:58:00,
2013-02-12 14:03:00,63.2,37.9,30.23,East,85,0.0,0.0,39,0.00,,---,0.00,VWS V14.01,2013-02-12 22:03:00,
2013-02-12 14:08:00,62.7,38.0,30.23,WNW,283,0.0,0.0,40,0.00,,---,0.00,VWS V14.01,2013-02-12 22:08:00,
2013-02-12 14:13:00,62.5,39.1,30.23,NNW,327,1.0,0.0,42,0.00,,---,0.00,VWS V14.01,2013-02-12 22:13:00,
2013-02-12 14:18:00,62.6,38.6,30.23,NE,39,0.0,0.0,41,0.00,,---,0.00,VWS V14.01,2013-02-12 22:18:00,
2013-02-12 14:23:00,62.5,38.5,30.23,NNW,344,0.0,0.0,41,0.00,,---,0.00,VWS V14.01,2013-02-12 22:23:00,
2013-02-12 14:28:00,62.8,38.1,30.22,NW,322,0.0,0.0,40,0.00,,---,0.00,VWS V14.01,2013-02-12 22:28:00,
2013-02-12 14:33:00,62.3,38.3,30.22,East,99,1.0,0.0,41,0.00,,---,0.00,VWS V14.01,2013-02-12 22:33:00,
2013-02-12 14:38:00,62.4,39.0,30.22,NNW,343,0.0,0.0,42,0.00,,---,0.00,VWS V14.01,2013-02-12 22:38:00,
2013-02-12 14:43:00,63.1,39.0,30.23,NNE,19,0.0,0.0,41,0.00,,---,0.00,VWS V14.01,2013-02-12 22:43:00,
2013-02-12 14:48:00,63.7,39.0,30.22,North,360,2.0,0.0,40,0.00,,---,0.00,VWS V14.01,2013-02-12 22:48:00,
2013-02-12 14:54:00,63.7,39.6,30.22,NNE,17,0.0,0.0,41,0.00,,---,0.00,VWS V14.01,2013-02-12 22:54:00,
2013-02-12 14:59:00,63.5,38.8,30.22,NNW,344,0.0,0.0,40,0.00,,---,0.00,VWS V14.01,2013-02-12 22:59:00,
2013-02-12 15:04:00,63.8,39.0,30.22,NNE,15,0.0,0.0,40,0.00,,---,0.00,VWS V14.01,2013-02-12 23:04:00,
2013-02-12 15:09:00,64.0,38.6,30.22,NE,44,0.0,0.0,39,0.00,,---,0.00,VWS V14.01,2013-02-12 23:09:00,
2013-02-12 15:14:00,63.6,38.9,30.22,North,355,1.0,0.0,40,0.00,,---,0.00,VWS V14.01,2013-02-12 23:14:00,
2013-02-12 15:19:00,62.4,39.0,30.22,NW,314,0.0,0.0,42,0.00,,---,0.00,VWS V14.01,2013-02-12 23:19:00,
2013-02-12 15:24:00,61.7,37.8,30.22,West,275,0.0,0.0,41,0.00,,---,0.00,VWS V14.01,2013-02-12 23:24:00,
2013-02-12 15:29:00,61.0,38.4,30.22,North,5,0.0,0.0,43,0.00,,---,0.00,VWS V14.01,2013-02-12 23:29:00,
2013-02-12 15:34:00,60.7,38.1,30.22,West,279,3.0,0.0,43,0.00,,---,0.00,VWS V14.01,2013-02-12 23:34:00,
2013-02-12 15:39:00,60.1,37.0,30.22,North,5,2.0,0.0,42,0.00,,---,0.00,VWS V14.01,2013-02-12 23:39:00,
2013-02-12 15:44:00,60.0,38.0,30.22,WNW,283,0.0,0.0,44,0.00,,---,0.00,VWS V14.01,2013-02-12 23:44:00,
2013-02-12 15:49:00,59.8,37.3,30.22,WNW,293,0.0,0.0,43,0.00,,---,0.00,VWS V14.01,2013-02-12 23:49:00,
2013-02-12 15:54:00,59.5,37.0,30.22,WNW,284,0.0,0.0,43,0.00,,---,0.00,VWS V14.01,2013-02-12 23:54:00,
2013-02-12 15:59:00,59.1,37.2,30.22,North,11,1.0,0.0,44,0.00,,---,0.00,VWS V14.01,2013-02-12 23:59:00,
2013-02-12 16:04:00,58.9,37.0,30.22,East,92,1.0,0.0,44,0.00,,---,0.00,VWS V14.01,2013-02-13 00:04:00,
2013-02-12 16:09:00,58.8,37.5,30.22,NE,34,2.0,0.0,45,0.00,,---,0.00,VWS V14.01,2013-02-13 00:09:00,
2013-02-12 16:14:00,58.5,37.8,30.21,WNW,293,0.0,0.0,46,0.00,,---,0.00,VWS V14.01,2013-02-13 00:14:00,
2013-02-12 16:20:00,58.2,37.5,30.21,NE,34,1.0,0.0,46,0.00,,---,0.00,VWS V14.01,2013-02-13 00:20:00,
2013-02-12 16:24:00,58.1,37.5,30.21,NE,40,0.0,0.0,46,0.00,,---,0.00,VWS V14.01,2013-02-13 00:24:00,
2013-02-12 16:30:00,58.0,37.4,30.21,NE,36,0.0,0.0,46,0.00,,---,0.00,VWS V14.01,2013-02-13 00:30:00,
2013-02-12 16:35:00,57.8,37.2,30.21,NNE,27,0.0,0.0,46,0.00,,---,0.00,VWS V14.01,2013-02-13 00:35:00,
2013-02-12 16:40:00,57.7,37.6,30.21,NNW,334,1.0,0.0,47,0.00,,---,0.00,VWS V14.01,2013-02-13 00:40:00,
2013-02-12 16:45:00,57.5,37.5,30.21,North,11,1.0,0.0,47,0.00,,---,0.00,VWS V14.01,2013-02-13 00:45:00,
2013-02-12 16:50:00,57.3,37.8,30.21,North,11,0.0,0.0,48,0.00,,---,0.00,VWS V14.01,2013-02-13 00:50:00,
2013-02-12 16:55:00,57.1,37.6,30.21,North,11,0.0,0.0,48,0.00,,---,0.00,VWS V14.01,2013-02-13 00:55:00,
2013-02-12 17:00:00,56.9,38.0,30.21,North,11,1.0,0.0,49,0.00,,---,0.00,VWS V14.01,2013-02-13 01:00:00,
2013-02-12 17:05:00,56.7,38.3,30.21,North,11,0.0,0.0,50,0.00,,---,0.00,VWS V14.01,2013-02-13 01:05:00,
2013-02-12 17:10:00,56.5,38.1,30.21,North,11,0.0,0.0,50,0.00,,---,0.00,VWS V14.01,2013-02-13 01:10:00,
2013-02-12 17:15:00,56.1,37.7,30.21,North,10,0.0,0.0,50,0.00,,---,0.00,VWS V14.01,2013-02-13 01:15:00,
2013-02-12 17:20:00,55.8,38.0,30.21,North,11,0.0,0.0,51,0.00,,---,0.00,VWS V14.01,2013-02-13 01:20:00,
2013-02-12 17:25:00,55.4,38.1,30.21,North,11,0.0,0.0,52,0.00,,---,0.00,VWS V14.01,2013-02-13 01:25:00,
2013-02-12 17:30:00,55.0,37.7,30.21,North,11,0.0,0.0,52,0.00,,---,0.00,VWS V14.01,2013-02-13 01:30:00,
2013-02-12 17:35:00,54.6,37.8,30.21,North,10,0.0,0.0,53,0.00,,---,0.00,VWS V14.01,2013-02-13 01:35:00,
2013-02-12 17:40:00,54.2,37.9,30.21,North,11,0.0,0.0,54,0.00,,---,0.00,VWS V14.01,2013-02-13 01:40:00,
2013-02-12 17:45:00,53.9,37.7,30.21,North,11,0.0,0.0,54,0.00,,---,0.00,VWS V14.01,2013-02-13 01:45:00,
2013-02-12 17:50:00,53.5,38.2,30.21,North,11,0.0,0.0,56,0.00,,---,0.00,VWS V14.01,2013-02-13 01:50:00,
2013-02-12 17:55:00,52.9,38.1,30.21,North,11,0.0,0.0,57,0.00,,---,0.00,VWS V14.01,2013-02-13 01:55:00,
2013-02-12 18:00:00,52.4,38.1,30.21,North,11,0.0,0.0,58,0.00,,---,0.00,VWS V14.01,2013-02-13 02:00:00,
2013-02-12 18:06:00,51.8,37.9,30.21,North,11,0.0,0.0,59,0.00,,---,0.00,VWS V14.01,2013-02-13 02:06:00,
2013-02-12 18:11:00,51.3,37.9,30.21,North,11,0.0,0.0,60,0.00,,---,0.00,VWS V14.01,2013-02-13 02:11:00,
2013-02-12 18:16:00,51.0,37.6,30.21,North,11,0.0,0.0,60,0.00,,---,0.00,VWS V14.01,2013-02-13 02:16:00,
2013-02-12 18:21:00,50.7,37.8,30.21,North,11,0.0,0.0,61,0.00,,---,0.00,VWS V14.01,2013-02-13 02:21:00,
2013-02-12 18:26:00,50.4,37.5,30.21,North,11,0.0,0.0,61,0.00,,---,0.00,VWS V14.01,2013-02-13 02:26:00,
2013-02-12 18:31:00,50.1,37.6,30.21,North,11,0.0,0.0,62,0.00,,---,0.00,VWS V14.01,2013-02-13 02:31:00,
2013-02-12 18:36:00,49.8,37.3,30.21,North,11,0.0,0.0,62,0.00,,---,0.00,VWS V14.01,2013-02-13 02:36:00,
2013-02-12 18:41:00,49.6,37.5,30.21,North,11,0.0,0.0,63,0.00,,---,0.00,VWS V14.01,2013-02-13 02:41:00,
2013-02-12 18:46:00,49.3,37.2,30.21,North,11,0.0,0.0,63,0.00,,---,0.00,VWS V14.01,2013-02-13 02:46:00,
2013-02-12 18:51:00,49.0,37.4,30.21,North,11,0.0,0.0,64,0.00,,---,0.00,VWS V14.01,2013-02-13 02:51:00,
2013-02-12 18:56:00,48.8,37.2,30.20,North,11,0.0,0.0,64,0.00,,---,0.00,VWS V14.01,2013-02-13 02:56:00,
2013-02-12 19:01:00,48.6,37.4,30.21,North,11,0.0,0.0,65,0.00,,---,0.00,VWS V14.01,2013-02-13 03:01:00,
2013-02-12 19:06:00,48.5,37.7,30.21,North,11,0.0,0.0,66,0.00,,---,0.00,VWS V14.01,2013-02-13 03:06:00,
2013-02-12 19:11:00,48.3,37.5,30.21,North,11,0.0,0.0,66,0.00,,---,0.00,VWS V14.01,2013-02-13 03:11:00,
2013-02-12 19:16:00,48.0,37.6,30.21,North,11,0.0,0.0,67,0.00,,---,0.00,VWS V14.01,2013-02-13 03:16:00,
2013-02-12 19:21:00,47.7,37.3,30.21,North,10,0.0,0.0,67,0.00,,---,0.00,VWS V14.01,2013-02-13 03:21:00,
2013-02-12 19:26:00,47.5,37.5,30.21,North,11,0.0,0.0,68,0.00,,---,0.00,VWS V14.01,2013-02-13 03:26:00,
2013-02-12 19:32:00,47.2,37.2,30.21,North,11,0.0,0.0,68,0.00,,---,0.00,VWS V14.01,2013-02-13 03:32:00,
2013-02-12 19:37:00,46.9,36.9,30.21,North,11,0.0,0.0,68,0.00,,---,0.00,VWS V14.01,2013-02-13 03:37:00,
2013-02-12 19:42:00,46.7,36.7,30.21,North,11,0.0,0.0,68,0.00,,---,0.00,VWS V14.01,2013-02-13 03:42:00,
2013-02-12 19:47:00,46.5,36.9,30.21,North,11,0.0,0.0,69,0.00,,---,0.00,VWS V14.01,2013-02-13 03:47:00,
2013-02-12 19:52:00,46.3,37.1,30.21,North,10,0.0,0.0,70,0.00,,---,0.00,VWS V14.01,2013-02-13 03:52:00,
2013-02-12 19:57:00,46.1,36.9,30.20,North,10,0.0,0.0,70,0.00,,---,0.00,VWS V14.01,2013-02-13 03:57:00,
2013-02-12 20:02:00,45.9,37.0,30.21,North,11,0.0,0.0,71,0.00,,---,0.00,VWS V14.01,2013-02-13 04:02:00,
2013-02-12 20:07:00,45.7,36.8,30.21,North,11,0.0,0.0,71,0.00,,---,0.00,VWS V14.01,2013-02-13 04:07:00,
2013-02-12 20:12:00,45.5,36.7,30.21,North,11,0.0,0.0,71,0.00,,---,0.00,VWS V14.01,2013-02-13 04:12:00,
2013-02-12 20:17:00,45.3,36.8,30.20,North,10,0.0,0.0,72,0.00,,---,0.00,VWS V14.01,2013-02-13 04:17:00,
2013-02-12 20:22:00,45.2,36.7,30.21,North,11,0.0,0.0,72,0.00,,---,0.00,VWS V14.01,2013-02-13 04:22:00,
2013-02-12 20:27:00,45.0,36.9,30.21,North,10,0.0,0.0,73,0.00,,---,0.00,VWS V14.01,2013-02-13 04:27:00,
2013-02-12 20:32:00,44.8,36.7,30.20,North,9,0.0,0.0,73,0.00,,---,0.00,VWS V14.01,2013-02-13 04:32:00,
2013-02-12 20:37:00,44.7,36.9,30.20,North,11,0.0,0.0,74,0.00,,---,0.00,VWS V14.01,2013-02-13 04:37:00,
2013-02-12 20:42:00,44.6,37.2,30.21,North,10,0.0,0.0,75,0.00,,---,0.00,VWS V14.01,2013-02-13 04:42:00,
2013-02-12 20:47:00,44.5,37.1,30.21,North,11,0.0,0.0,75,0.00,,---,0.00,VWS V14.01,2013-02-13 04:47:00,
2013-02-12 20:52:00,44.4,37.0,30.21,North,11,0.0,0.0,75,0.00,,---,0.00,VWS V14.01,2013-02-13 04:52:00,
2013-02-12 20:58:00,44.3,37.2,30.21,North,11,0.0,0.0,76,0.00,,---,0.00,VWS V14.01,2013-02-13 04:58:00,
2013-02-12 21:00:00,44.2,37.1,30.21,North,11,0.0,0.0,76,0.00,,---,0.00,VWS V14.01,2013-02-13 05:00:00,
2013-02-12 21:01:00,44.2,37.1,30.21,NNE,12,0.0,0.0,76,0.00,,---,0.00,VWS V14.01,2013-02-13 05:01:00,
2013-02-12 21:06:00,44.1,37.0,30.21,North,11,0.0,0.0,76,0.00,,---,0.00,VWS V14.01,2013-02-13 05:06:00,
2013-02-12 21:11:00,44.1,37.0,30.21,North,11,0.0,0.0,76,0.00,,---,0.00,VWS V14.01,2013-02-13 05:11:00,
2013-02-12 21:16:00,44.0,37.3,30.21,North,11,0.0,0.0,77,0.00,,---,0.00,VWS V14.01,2013-02-13 05:16:00,
2013-02-12 21:21:00,43.9,37.2,30.21,North,11,0.0,0.0,77,0.00,,---,0.00,VWS V14.01,2013-02-13 05:21:00,
2013-02-12 21:26:00,43.7,37.0,30.21,North,10,0.0,0.0,77,0.00,,---,0.00,VWS V14.01,2013-02-13 05:26:00,
2013-02-12 21:31:00,43.6,37.2,30.21,North,11,0.0,0.0,78,0.00,,---,0.00,VWS V14.01,2013-02-13 05:31:00,
2013-02-12 21:37:00,43.5,37.1,30.22,North,11,0.0,0.0,78,0.00,,---,0.00,VWS V14.01,2013-02-13 05:37:00,
2013-02-12 21:42:00,43.5,37.1,30.21,North,11,0.0,0.0,78,0.00,,---,0.00,VWS V14.01,2013-02-13 05:42:00,
2013-02-12 21:47:00,43.4,37.0,30.21,North,11,0.0,0.0,78,0.00,,---,0.00,VWS V14.01,2013-02-13 05:47:00,
2013-02-12 21:52:00,43.4,37.0,30.22,North,11,0.0,0.0,78,0.00,,---,0.00,VWS V14.01,2013-02-13 05:52:00,
2013-02-12 21:57:00,43.4,37.0,30.22,NNE,29,0.0,0.0,78,0.00,,---,0.00,VWS V14.01,2013-02-13 05:57:00,
2013-02-12 22:02:00,43.3,36.9,30.22,NNE,29,0.0,0.0,78,0.00,,---,0.00,VWS V14.01,2013-02-13 06:02:00,
2013-02-12 22:07:00,43.2,36.8,30.22,NNE,28,0.0,0.0,78,0.00,,---,0.00,VWS V14.01,2013-02-13 06:07:00,
2013-02-12 22:12:00,43.1,36.7,30.22,East,98,2.0,0.0,78,0.00,,---,0.00,VWS V14.01,2013-02-13 06:12:00,
2013-02-12 22:17:00,42.9,36.8,30.22,East,98,0.0,0.0,79,0.00,,---,0.00,VWS V14.01,2013-02-13 06:17:00,
2013-02-12 22:22:00,42.8,36.8,30.22,East,98,0.0,0.0,79,0.00,,---,0.00,VWS V14.01,2013-02-13 06:22:00,
2013-02-12 22:27:00,42.7,36.7,30.22,East,98,0.0,0.0,79,0.00,,---,0.00,VWS V14.01,2013-02-13 06:27:00,
2013-02-12 22:32:00,42.6,36.5,30.22,East,97,0.0,0.0,79,0.00,,---,0.00,VWS V14.01,2013-02-13 06:32:00,
2013-02-12 22:37:00,42.6,36.5,30.22,East,88,0.0,0.0,79,0.00,,---,0.00,VWS V14.01,2013-02-13 06:37:00,
2013-02-12 22:42:00,42.5,36.8,30.22,East,88,0.0,0.0,80,0.00,,---,0.00,VWS V14.01,2013-02-13 06:42:00,
2013-02-12 22:47:00,42.4,36.7,30.22,East,88,0.0,0.0,80,0.00,,---,0.00,VWS V14.01,2013-02-13 06:47:00,
2013-02-12 22:52:00,42.3,36.6,30.22,East,88,0.0,0.0,80,0.00,,---,0.00,VWS V14.01,2013-02-13 06:52:00,
2013-02-12 22:57:00,42.2,36.5,30.22,East,88,0.0,0.0,80,0.00,,---,0.00,VWS V14.01,2013-02-13 06:57:00,
2013-02-12 23:03:00,42.1,36.4,30.22,East,88,0.0,0.0,80,0.00,,---,0.00,VWS V14.01,2013-02-13 07:03:00,
2013-02-12 23:08:00,42.0,36.6,30.22,East,88,0.0,0.0,81,0.00,,---,0.00,VWS V14.01,2013-02-13 07:08:00,
2013-02-12 23:13:00,42.0,36.3,30.22,East,88,0.0,0.0,80,0.00,,---,0.00,VWS V14.01,2013-02-13 07:13:00,
2013-02-12 23:18:00,41.9,36.2,30.22,ESE,118,0.0,0.0,80,0.00,,---,0.00,VWS V14.01,2013-02-13 07:18:00,
2013-02-12 23:23:00,41.8,36.4,30.23,ESE,118,1.0,0.0,81,0.00,,---,0.00,VWS V14.01,2013-02-13 07:23:00,
2013-02-12 23:28:00,41.7,36.3,30.23,ESE,118,0.0,0.0,81,0.00,,---,0.00,VWS V14.01,2013-02-13 07:28:00,
2013-02-12 23:33:00,41.8,36.4,30.23,ESE,118,0.0,0.0,81,0.00,,---,0.00,VWS V14.01,2013-02-13 07:33:00,
2013-02-12 23:38:00,41.8,36.4,30.23,ESE,118,0.0,0.0,81,0.00,,---,0.00,VWS V14.01,2013-02-13 07:38:00,
2013-02-12 23:43:00,41.7,36.3,30.23,ESE,118,0.0,0.0,81,0.00,,---,0.00,VWS V14.01,2013-02-13 07:43:00,
2013-02-12 23:48:00,41.6,36.2,30.23,ESE,119,0.0,0.0,81,0.00,,---,0.00,VWS V14.01,2013-02-13 07:48:00,
2013-02-12 23:53:00,41.5,36.1,30.23,ESE,119,0.0,0.0,81,0.00,,---,0.00,VWS V14.01,2013-02-13 07:53:00,
2013-02-12 23:58:00,41.5,36.1,30.23,ESE,118,0.0,0.0,81,0.00,,---,0.00,VWS V14.01,2013-02-13 07:58:00,